Powrót do katalogu

NOAA 17 DEB

AktywnyPO
NORAD 48720·DEBRIS·🇺🇸 United States

Wystrzelony Jun 24, 2002 z Vandenberg Space Force Base

Loading…

Następne Przeloty (najbliższe 24 godziny)

TLE

ŚwieżeSource: Space-Track

Epoka: Sep 14, 2026, 06:10 UTC

1 48720U 02032BD  26257.25740681  .00004861  00000-0  11040-2 0  9990
2 48720  98.8318 271.2593 0029866  71.7897 288.6546 14.56224646287937

Śledź NOAA 17 DEB w czasie rzeczywistym z AllMySat

Download on the App Store